Location: Unspecified
(0.0000°N, 0.0000°E)
Time: 18:25:32
(UTC+00:00)

A-11 Canister half - Pass Details

Date: 06 August 2021
Orbit: 1526 x 1683 km, 47.3° (Epoch: 25 September)

Event Time Altitude Azimuth Distance (km) Brightness Sun altitude
Rises 21:01:07 0° 276° (W) 4,719 12.3 -41.6°
Reaches altitude 10° 21:06:37 10° 251° (WSW) 3,712 11.4 -42.9°
Maximum altitude 21:10:29 13° 225° (SW) 3,458 11.0 -43.8°
Enters shadow 21:12:46 12° 210° (SSW) 3,540 10.9 -44.3°
